YAOGAN-40 02A

导读

YAOGAN-40 02A(遥感四十号02A)是中国于2025年5月11日在太原卫星发射中心,通过长征六号改运载火箭成功发射的遥感卫星,隶属于遥感四十号02组卫星任务。卫星顺利进入预定轨道,主要用于开展电磁环境探测及相关技术试验,是中国遥感卫星星座组网的重要组成部分,将为地球观测、科研试验提供有力支撑,助力航天技术发展与多领域信息服务。

Basic Information
目录编号:
63918
目录名称:
YAOGAN-40 02A
国际标识:
2025-096A
轨道中心:
EARTH
卫星名称:
YAOGAN-40 02A
卫星全名:
YAOGAN-40 02A
卫星状态:
在轨 (已飞行482 天)
发射日期:
2025-05-11 UTC
国别 :
中国 (CN)
星等 :
--
Orbit Information
数据来源 国际轨道数据 AOE轨道数据
星历时间 2026-09-05T12:35:22+0800
7小时前
查看轨道信息
2026-09-02T02:00:00+0800
3天前
查看轨道信息
半长轴 7229.102km 7229.101km
偏心率 0.0001954 0.0001976
轨道倾角 85.999° 85.996°
近地点辐角 95.607° 136.079°
升交点赤经 152.148° 153.695°
平近点角 264.533° 16.741°
近地点 849.552km 849.535km
远地点 852.378km 852.393km
周期 101.950分钟 101.950分钟
每日圈数 14.124604 14.124606
Detailed Information
使用方式:
暂无
2D Orbit Map
3D Orbit Map
Orbit Altitude Analysis Chart
Orbit Inclination Analysis Chart
Orbit Comprehensive Analysis Chart
View Comprehensive Chart
Conjunction Data List
Event ID Objects TCA Miss Dist (km) Collision Risk Probability Collision Risk Index (CRI) Action
CDM_260901-062200-070106-391828
2026-09-01T
06:22:00+0000
1.348 km
极远距离
7.595112E-6 低风险 0.53
CDM_260830-133503-367806-391822
2026-08-30T
13:35:36+0000
2.004 km
极远距离
2.840531E-6 低风险 0.44
CDM_260902-131103-039306-391825
2026-09-02T
13:11:43+0000
2.094 km
极远距离
2.516264E-6 低风险 0.43
CDM_260906-021304-069106-391822
2026-09-06T
02:13:37+0000
2.849 km
极远距离
1.345709E-6 低风险 0.38
CDM_260907-135602-977606-391823
2026-09-07T
13:56:01+0000
2.951 km
极远距离
1.272153E-6 低风险 0.37